Location: Asheville, NC
(35.6000°N, 82.5500°W)
Time: 22:32:27
(UTC-04:00)

UWE-3 - Pass Details

Date: 03 January 2018
Orbit: 586 x 684 km, 97.6° (Epoch: 25 April)

Event Time Altitude Azimuth Distance (km) Brightness Sun altitude
Rises 19:15:06 0° 160° (SSE) 2,802 ? -20.8°
Reaches altitude 10° 19:17:14 10° 157° (SSE) 1,912 ? -21.3°
Enters shadow 19:18:48 22° 151° (SSE) 1,293 ? -21.6°
Exits shadow 19:25:25 11° 355° (N) 1,909 ? -22.9°
Drops below altitude 10° 19:25:33 10° 355° (N) 1,967 ? -22.9°
Sets 19:27:47 0° 352° (N) 2,891 ? -23.4°
